Weather History for Newport Airport, OR

Change the Weather History Date:

Sunday, February 24, 2013

  Actual Average Record
Temperature  
Mean Temperature 42 °F -  
Max Temperature 48 °F 50 °F 59 °F (2008)
Min Temperature 37 °F 39 °F 30 °F (2011)
Degree Days  
Heating Degree Days 22    
Moisture  
Dew Point 38 °F    
Average Humidity 81    
Maximum Humidity 100    
Minimum Humidity 66    
Precipitation  
Precipitation 0.06 in - - ()
Sea Level Pressure  
Sea Level Pressure 30.35 in    
Wind  
Wind Speed 6 mph (South)    
Max Wind Speed 24 mph    
Max Gust Speed 33 mph    
Visibility 8 miles    
Events Rain    
Averages and records for this station are not official NWS values.
T = Trace of Precipitation, MM = Missing Value Source: NWS Daily Summary

Daily Weather History Graph

Daily Weather History Graph

Search for Another Location

Airport:

Trip Planner

Search our weather history database for the weather conditions in past years. The results will help you decide how hot, cold, wet, or windy it might be!

Date:

Astronomy

Feb. 24, 2013 Rise Set
Actual Time 7:01 AM PST 5:57 PM PST
Civil Twilight 6:32 AM PST 6:27 PM PST
Nautical Twilight 5:58 AM PST 7:01 PM PST
Astronomical Twilight 5:24 AM PST 7:34 PM PST
Moon 5:15 PM PST (2/24) 6:02 AM PST (2/24)
Length of Visible Light 11h 55m
Length of Day
10h 56m
Waxing Gibbous, 99% of the Moon is Illuminated
Feb 24
Waxing Gibbous
Feb 25
Full
Mar 4
Last Quarter
Mar 11
New
Mar 19
First Quarter

Hourly Weather History & Observations

Time (PST) Temp. Windchill Dew Point Humidity Pressure Visibility Wind Dir Wind Speed Gust Speed Precip Events Conditions
12:15 AM 39.2 °F 35.9 °F 35.6 °F 87% 30.48 in 7.0 mi East 4.6 mph - N/A   Overcast
12:35 AM 39.2 °F 35.9 °F 37.4 °F 93% 30.48 in 7.0 mi East 4.6 mph - N/A   Overcast
12:55 AM 39.2 °F 35.9 °F 35.6 °F 87% 30.48 in 7.0 mi ESE 4.6 mph - N/A   Overcast
1:15 AM 39.2 °F 37.0 °F 35.6 °F 87% 30.48 in 7.0 mi ESE 3.5 mph - N/A   Overcast
1:35 AM 39.2 °F - 35.6 °F 87% 30.48 in 7.0 mi Calm Calm - N/A   Overcast
1:55 AM 39.2 °F - 37.4 °F 93% 30.48 in 10.0 mi Calm Calm - N/A   Overcast
2:15 AM 39.2 °F - 35.6 °F 87% 30.48 in 10.0 mi Calm Calm - N/A   Overcast
2:35 AM 39.2 °F - 37.4 °F 93% 30.47 in 10.0 mi Calm Calm - N/A   Overcast
2:55 AM 37.4 °F - 35.6 °F 93% 30.47 in 10.0 mi Calm Calm - N/A   Overcast
3:15 AM 37.4 °F 34.9 °F 35.6 °F 93% 30.46 in 10.0 mi East 3.5 mph - N/A   Overcast
3:35 AM 37.4 °F - 35.6 °F 93% 30.46 in 10.0 mi Calm Calm - N/A   Overcast
3:55 AM 37.4 °F 34.9 °F 35.6 °F 93% 30.46 in 10.0 mi East 3.5 mph - N/A   Overcast
4:15 AM 37.4 °F 33.8 °F 35.6 °F 93% 30.46 in 10.0 mi East 4.6 mph - N/A   Overcast
4:35 AM 37.4 °F 33.8 °F 35.6 °F 93% 30.45 in 10.0 mi ESE 4.6 mph - N/A   Overcast
4:55 AM 37.4 °F 33.8 °F 35.6 °F 93% 30.45 in 10.0 mi ESE 4.6 mph - N/A   Overcast
5:15 AM 37.4 °F 34.9 °F 35.6 °F 93% 30.45 in 10.0 mi ESE 3.5 mph - N/A   Overcast
5:35 AM 39.2 °F 37.0 °F 37.4 °F 93% 30.45 in 10.0 mi SE 3.5 mph - N/A   Overcast
5:55 AM 41.0 °F 38.0 °F 37.4 °F 87% 30.45 in 10.0 mi SE 4.6 mph - N/A   Overcast
6:15 AM 41.0 °F 39.0 °F 35.6 °F 81% 30.44 in 10.0 mi SE 3.5 mph - N/A   Overcast
6:35 AM 39.2 °F 37.0 °F 35.6 °F 87% 30.44 in 10.0 mi ESE 3.5 mph - N/A   Overcast
6:55 AM 37.4 °F 33.8 °F 35.6 °F 93% 30.44 in 10.0 mi ESE 4.6 mph - N/A   Overcast
7:15 AM 37.4 °F 33.8 °F 35.6 °F 93% 30.44 in 10.0 mi ESE 4.6 mph - N/A   Overcast
7:35 AM 39.2 °F 35.0 °F 35.6 °F 87% 30.43 in 10.0 mi ESE 5.8 mph - N/A   Overcast
7:55 AM 41.0 °F 38.0 °F 37.4 °F 87% 30.43 in 10.0 mi ESE 4.6 mph - N/A   Overcast
8:15 AM 41.0 °F 37.1 °F 37.4 °F 87% 30.43 in 10.0 mi SE 5.8 mph - N/A   Overcast
8:35 AM 42.8 °F 39.3 °F 37.4 °F 81% 30.43 in 10.0 mi SE 5.8 mph - N/A   Mostly Cloudy
8:55 AM 44.6 °F 42.2 °F 35.6 °F 71% 30.43 in 10.0 mi SSE 4.6 mph - N/A   Mostly Cloudy
9:15 AM 44.6 °F 42.2 °F 37.4 °F 76% 30.44 in 10.0 mi SSE 4.6 mph - N/A   Overcast
9:35 AM 46.4 °F 42.4 °F 37.4 °F 71% - 10.0 mi South 8.1 mph - N/A   Overcast
9:55 AM 46.4 °F 42.9 °F 37.4 °F 71% 30.42 in 10.0 mi South 6.9 mph - N/A   Overcast
10:15 AM 46.4 °F 42.4 °F 35.6 °F 66% 30.42 in 10.0 mi South 8.1 mph - N/A   Scattered Clouds
10:35 AM 46.4 °F 42.9 °F 35.6 °F 66% 30.41 in 10.0 mi South 6.9 mph - N/A   Clear
10:55 AM 46.4 °F 41.1 °F 35.6 °F 66% 30.40 in 5.0 mi SW 11.5 mph - N/A   Haze
11:15 AM 46.4 °F 41.5 °F 35.6 °F 66% 30.40 in 5.0 mi SSW 10.4 mph - N/A   Haze
11:35 AM 46.4 °F 41.1 °F 35.6 °F 66% 30.40 in 5.0 mi SW 11.5 mph - N/A   Haze
11:55 AM 48.2 °F - 37.4 °F 66% 30.40 in 7.0 mi SW 10.4 mph - N/A   Clear
12:15 PM 48.2 °F - 37.4 °F 66% 30.40 in 7.0 mi SW 11.5 mph - N/A   Clear
12:35 PM 48.2 °F - 37.4 °F 66% 30.38 in 7.0 mi SW 11.5 mph - N/A   Clear
12:55 PM 48.2 °F - 37.4 °F 66% 30.37 in 7.0 mi SSW 10.4 mph - N/A   Clear
1:15 PM 48.2 °F - 39.2 °F 71% 30.36 in 7.0 mi SW 11.5 mph - N/A   Clear
1:35 PM 48.2 °F - 39.2 °F 71% 30.35 in 7.0 mi SW 9.2 mph - N/A   Clear
1:55 PM 48.2 °F - 39.2 °F 71% 30.34 in 7.0 mi SW 10.4 mph - N/A   Clear
2:15 PM 48.2 °F - 37.4 °F 66% 30.34 in 7.0 mi SW 11.5 mph - N/A   Clear
2:35 PM 48.2 °F - 39.2 °F 71% 30.33 in 7.0 mi SW 11.5 mph - N/A   Clear
2:55 PM 48.2 °F - 37.4 °F 66% 30.32 in 7.0 mi SSW 10.4 mph - N/A   Clear
3:15 PM 46.4 °F 42.4 °F 37.4 °F 71% 30.32 in 7.0 mi SSW 8.1 mph - N/A   Clear
3:35 PM 46.4 °F 41.9 °F 37.4 °F 71% 30.31 in 7.0 mi SSW 9.2 mph - N/A   Mostly Cloudy
3:55 PM 46.4 °F 41.9 °F 37.4 °F 71% 30.30 in 5.0 mi SSW 9.2 mph - N/A   Haze
4:15 PM 46.4 °F 41.5 °F 37.4 °F 71% 30.29 in 7.0 mi SSW 10.4 mph - N/A   Overcast
4:35 PM 46.4 °F 40.7 °F 37.4 °F 71% 30.29 in 7.0 mi SSW 12.7 mph - N/A   Overcast
4:55 PM 44.6 °F 39.7 °F 37.4 °F 76% 30.27 in 7.0 mi South 9.2 mph - N/A   Overcast
5:15 PM 44.6 °F 39.7 °F 37.4 °F 76% 30.27 in 5.0 mi SSW 9.2 mph - N/A   Haze
5:35 PM 44.6 °F 41.4 °F 37.4 °F 76% 30.26 in 7.0 mi South 5.8 mph - N/A   Overcast
5:55 PM 44.6 °F 41.4 °F 37.4 °F 76% 30.25 in 7.0 mi South 5.8 mph - N/A   Overcast
6:15 PM 42.8 °F 39.3 °F 37.4 °F 81% 30.24 in 7.0 mi South 5.8 mph - N/A   Overcast
6:35 PM 42.8 °F 38.0 °F 37.4 °F 81% 30.23 in 7.0 mi South 8.1 mph - N/A   Overcast
6:55 PM 42.8 °F 38.6 °F 37.4 °F 81% 30.23 in 7.0 mi South 6.9 mph - N/A   Overcast
7:15 PM 42.8 °F 38.6 °F 37.4 °F 81% 30.22 in 7.0 mi South 6.9 mph - N/A   Overcast
7:35 PM 42.8 °F 37.5 °F 37.4 °F 81% 30.21 in 7.0 mi South 9.2 mph - N/A   Overcast
7:55 PM 42.8 °F 37.0 °F 37.4 °F 81% - 7.0 mi South 10.4 mph - N/A   Mostly Cloudy
8:15 PM 42.8 °F 37.5 °F 37.4 °F 81% 30.20 in 7.0 mi South 9.2 mph - N/A   Mostly Cloudy
8:35 PM 44.6 °F 40.2 °F 37.4 °F 76% 30.19 in 10.0 mi South 8.1 mph - N/A   Overcast
8:55 PM 44.6 °F 39.2 °F 37.4 °F 76% 30.19 in 10.0 mi South 10.4 mph - N/A   Overcast
9:15 PM 44.6 °F 37.8 °F 41.0 °F 87% 30.18 in 10.0 mi South 15.0 mph 23.0 mph N/A   Overcast
9:35 PM 44.6 °F 37.2 °F 41.0 °F 87% - 5.0 mi South 17.3 mph 21.9 mph N/A   Overcast
9:55 PM 44.6 °F 36.6 °F 42.8 °F 93% 30.16 in 3.0 mi South 19.6 mph 25.3 mph N/A   Overcast
10:15 PM 44.6 °F 36.4 °F 42.8 °F 93% 30.15 in 3.0 mi South 20.7 mph 26.5 mph N/A   Drizzle
10:35 PM 44.6 °F 36.9 °F 42.8 °F 93% 30.14 in 4.0 mi South 18.4 mph 27.6 mph N/A Rain Light Rain
10:55 PM 44.6 °F 36.6 °F 42.8 °F 93% 30.13 in 2.0 mi South 19.6 mph 27.6 mph N/A Rain Rain
11:15 PM 44.6 °F 35.7 °F 42.8 °F 93% 30.12 in 2.5 mi South 24.2 mph 27.6 mph N/A Rain Light Rain
11:35 PM 44.6 °F 35.9 °F 42.8 °F 93% 30.12 in 1.8 mi South 23.0 mph 33.4 mph 0.03 in   Overcast
11:55 PM 44.6 °F 36.4 °F 44.6 °F 100% 30.12 in 3.0 mi South 20.7 mph 29.9 mph 0.06 in Rain Rain